Flag for Canada Weather past 2 weeks in Red Deer, Alberta, Canada

Now
46 °F

Partly cloudy.


Feels Like: 46 °F
Forecast: 41 / 66 °F
Wind: No wind

Location: Red Deer

Current Time: Apr 21, 2015 at 1:52:07 AM

Latest Report: Apr 21, 2015 at 1:00 AM


Visibility: 15 mi

Pressure: 29.88 "Hg

Humidity: 53%

Dew point: 30 °F

Location of Red DeerLocation

Historic Weather in Red Deer — Graph

°F

Red Deer temperature yesterday

Maximum temperature yesterday: 64 °F (at 4:00 PM)
Minimum temperature yesterday: 23 °F (at 6:00 AM)
Average temperature yesterday: 48 °F

Past Weeks' High & Low Weather Summary

 TemperatureHumidityPressure
High68 °F (Apr 17, 3:00 PM)93% (Apr 6, 11:00 PM)30.40 "Hg (Apr 6, 11:00 PM)
Low18 °F (Apr 12, 5:00 AM)10% (Apr 12, 2:00 PM)29.33 "Hg (Apr 11, 11:00 AM)
Average41 °F49%29.98 "Hg
* Reported Midnight between Apr 5 and Apr 6 — Midnight between Apr 20 and Apr 21, Red Deer, Weather by CustomWeather, © 2015

Note: Actual official high and low records may vary slightly from our data, if they occured in-between our weather recording intervals... More about our weather records

Advertising

Red Deer weather history for previous 24 hours

 ConditionsComfort  
Time TempWeatherWind HumidityBarometerVisibility
12:00 AM
Tue, Apr 21
48 °FPassing clouds.3 mph54%29.88 "Hg15 mi
11:00 PM
Mon, Apr 20
50 °FOvercast.No wind47%29.87 "Hg15 mi
10:00 PM55 °FRefreshingly cool.3 mph38%29.87 "Hg15 mi
9:00 PM55 °FPartly sunny.5 mph38%29.88 "Hg15 mi
8:00 PM59 °FPartly sunny.9 mph34%29.88 "Hg15 mi
7:00 PM61 °FBroken clouds.13 mph31%29.90 "Hg15 mi
6:00 PM63 °FPartly sunny.16 mph27%29.89 "Hg15 mi
5:00 PM64 °FPartly sunny.15 mph26%29.88 "Hg15 mi
4:00 PM64 °FPartly sunny.15 mph26%29.90 "Hg15 mi
3:00 PM63 °FPartly sunny.15 mph25%29.91 "Hg15 mi
2:00 PM63 °FBroken clouds.13 mph25%29.92 "Hg15 mi
1:00 PM61 °FScattered clouds.13 mph27%29.93 "Hg15 mi
12:00 PM59 °FScattered clouds.15 mph29%29.95 "Hg15 mi
11:00 AM57 °FPassing clouds.12 mph27%29.97 "Hg15 mi
10:00 AM54 °FPassing clouds.10 mph30%29.98 "Hg15 mi
9:00 AM45 °FPassing clouds.3 mph42%30.01 "Hg15 mi
8:00 AM34 °FPassing clouds.5 mph65%30.02 "Hg15 mi
7:00 AM25 °FPassing clouds.6 mph74%30.03 "Hg15 mi
6:00 AM23 °FPassing clouds.7 mph80%30.03 "Hg15 mi
5:00 AM27 °FClear.6 mph69%30.03 "Hg15 mi
4:00 AM28 °FClear.5 mph59%30.03 "Hg15 mi
3:00 AM30 °FClear.3 mph59%30.03 "Hg15 mi
2:00 AM32 °FClear.6 mph51%30.05 "Hg15 mi
1:00 AM36 °FClear.7 mph48%30.06 "Hg15 mi
Weather by CustomWeather, © 2015

See weather overviewHow to use our weather pages